レモン-サイディング・スプリング彗星

C/2008 FK75 ( Lemmon-Siding Spring )

English version
Home page
Total 6,336 html files since Dec. 4, 1995
Updated on July 27, 2008

---------------------------------------------------------------------

・ プロフィール

発見日 2008年5月31日、7月1日
発見光度 19.4等、18.9等
発見者 Mt. Lemmon Survey, Siding Spring Survey

・ 軌道要素

The following orbital elements are taken from MPC 63376:

Epoch 2010 Oct. 11.0 TT = JDT 2455480.5
T 2010 Sept. 29.7114 TT                                 MPC
q   4.513498             (2000.0)            P               Q
z  -0.000404       Peri.   80.4083      +0.1634750      +0.8238854
 +/-0.000082       Node   218.2674      -0.7806420      +0.4443639
e   1.001824       Incl.   61.1890      +0.6032197      +0.3517864
From 70 observations 2008 Mar. 31-July 7, mean residual 0".4.

・ 星図

・ 光度変化

        m1 = 5.5 + 5 logΔ + 10.0 log r

---------------------------------------------------------------------

軌道要素はMPCのEphemerides and Orbital Elementsに掲載されたものです。
星図はステラナビゲータ Ver.8 (アストロアーツ) で作成したものです。
光度グラフはComet for Windowsで作成したものです。

---------------------------------------------------------------------

Copyright(C) 1995-2008 Seiichi Yoshida (comet@aerith.net). All rights reserved.